When you browse on this site, cookies collect data to enhance your experience and personalize the content and advertising you see.
Visit our Privacy Policy to learn more. By continuing to use the site, you agree to this use of cookies and data.

Hourly Weather Kusty

Today, 6 July, Monday

Time Temperature Precipitation Wind Pressure Humidity
00:00 +20°C° 0 mm 1 mps 739 mmHg 90%
01:00 +19°C° 0 mm 1 mps 739 mmHg 91%
02:00 +19°C° 0 mm 1 mps 739 mmHg 92%
03:00 +19°C° 0 mm 1 mps 740 mmHg 93%
04:00 +19°C° 0 mm 1 mps 740 mmHg 93%
05:00 +19°C° 0 mm 2 mps 740 mmHg 93%
06:00 +19°C° 0 mm 2 mps 740 mmHg 93%
07:00 +20°C° 0 mm 2 mps 740 mmHg 88%
08:00 +23°C° 0 mm 2 mps 740 mmHg 83%
09:00 +24°C° 0 mm 1 mps 740 mmHg 78%
10:00 +25°C° 0 mm 1 mps 740 mmHg 74%
11:00 +26°C° 0 mm 1 mps 740 mmHg 70%
12:00 +27°C° 0 mm 1 mps 740 mmHg 66%
13:00 +27°C° 0 mm 1 mps 740 mmHg 64%
14:00 +28°C° 0 mm 1 mps 740 mmHg 63%
15:00 +28°C° 0 mm 1 mps 740 mmHg 61%
16:00 +28°C° 0 mm 1 mps 740 mmHg 63%
17:00 +28°C° 0 mm 1 mps 739 mmHg 65%
18:00 +26°C° 0 mm 0 mps 739 mmHg 66%
19:00 +24°C° 0 mm 0 mps 739 mmHg 70%
20:00 +25°C° 0 mm 1 mps 739 mmHg 74%
21:00 +23°C° 0 mm 1 mps 739 mmHg 77%
22:00 +23°C° 0 mm 1 mps 739 mmHg 80%
23:00 +22°C° 0 mm 1 mps 739 mmHg 82%

Tomorrow, 7 July, Tuesday

Time Temperature Precipitation Wind Pressure Humidity
00:00 +21°C° 0 mm 1 mps 739 mmHg 84%
01:00 +21°C° 0 mm 1 mps 739 mmHg 86%
02:00 +20°C° 0 mm 2 mps 739 mmHg 88%
03:00 +20°C° 0 mm 2 mps 739 mmHg 89%
04:00 +20°C° 0 mm 2 mps 739 mmHg 90%
05:00 +20°C° 0 mm 2 mps 739 mmHg 90%
06:00 +21°C° 0 mm 2 mps 739 mmHg 90%
07:00 +23°C° 0 mm 2 mps 739 mmHg 87%
08:00 +25°C° 0 mm 2 mps 739 mmHg 83%
09:00 +26°C° 0 mm 3 mps 739 mmHg 80%
10:00 +28°C° 0 mm 3 mps 738 mmHg 76%
11:00 +29°C° 0 mm 3 mps 738 mmHg 72%
12:00 +30°C° 0 mm 4 mps 738 mmHg 67%
13:00 +30°C° 0.1 mm 4 mps 737 mmHg 68%
14:00 +30°C° 0.1 mm 4 mps 737 mmHg 68%
15:00 +30°C° 0.1 mm 4 mps 737 mmHg 69%
16:00 +30°C° 0.1 mm 3 mps 737 mmHg 71%
17:00 +30°C° 0.1 mm 3 mps 737 mmHg 73%
18:00 +30°C° 0.1 mm 3 mps 736 mmHg 75%
19:00 +29°C° 0 mm 3 mps 736 mmHg 76%
20:00 +27°C° 0 mm 3 mps 736 mmHg 78%
21:00 +25°C° 0 mm 3 mps 736 mmHg 80%
22:00 +25°C° 0 mm 3 mps 736 mmHg 78%
23:00 +25°C° 0 mm 4 mps 735 mmHg 76%

Day after tomorrow, 8 July, Wednesday

Time Temperature Precipitation Wind Pressure Humidity
00:00 +23°C° 0 mm 4 mps 735 mmHg 75%
01:00 +23°C° 0 mm 4 mps 735 mmHg 76%
02:00 +23°C° 0 mm 4 mps 735 mmHg 77%
03:00 +22°C° 0 mm 4 mps 735 mmHg 79%
04:00 +22°C° 0 mm 4 mps 735 mmHg 78%
05:00 +22°C° 0 mm 4 mps 735 mmHg 77%
06:00 +22°C° 0 mm 4 mps 734 mmHg 76%
07:00 +23°C° 0 mm 5 mps 735 mmHg 75%
08:00 +25°C° 0 mm 5 mps 735 mmHg 74%
09:00 +26°C° 0 mm 5 mps 735 mmHg 73%
10:00 +27°C° 0.1 mm 4 mps 735 mmHg 71%
11:00 +28°C° 0.1 mm 3 mps 735 mmHg 69%
12:00 +30°C° 0.1 mm 2 mps 736 mmHg 67%
13:00 +30°C° 0.5 mm 2 mps 736 mmHg 67%
14:00 +30°C° 0.5 mm 3 mps 736 mmHg 67%
15:00 +30°C° 0.5 mm 3 mps 736 mmHg 67%
16:00 +30°C° 0.5 mm 3 mps 736 mmHg 68%
17:00 +30°C° 0.5 mm 2 mps 736 mmHg 70%
18:00 +30°C° 0.5 mm 2 mps 736 mmHg 71%
19:00 +28°C° 0.4 mm 3 mps 736 mmHg 76%
20:00 +25°C° 0.4 mm 3 mps 736 mmHg 80%
21:00 +22°C° 0.4 mm 4 mps 735 mmHg 85%
22:00 +22°C° 1 mm 4 mps 735 mmHg 87%
23:00 +21°C° 1 mm 3 mps 735 mmHg 90%

9 July, Thursday

Time Temperature Precipitation Wind Pressure Humidity
00:00 +20°C° 1 mm 2 mps 735 mmHg 93%
01:00 +20°C° 0.7 mm 2 mps 735 mmHg 94%
02:00 +20°C° 0.7 mm 2 mps 735 mmHg 95%
03:00 +20°C° 0.7 mm 3 mps 735 mmHg 97%
04:00 +20°C° 0.7 mm 2 mps 735 mmHg 96%
05:00 +20°C° 0.7 mm 2 mps 735 mmHg 96%
06:00 +20°C° 0.7 mm 2 mps 735 mmHg 96%
07:00 +20°C° 0.4 mm 2 mps 735 mmHg 95%
08:00 +20°C° 0.4 mm 2 mps 735 mmHg 94%
09:00 +21°C° 0.4 mm 2 mps 735 mmHg 93%
10:00 +20°C° 1.3 mm 2 mps 735 mmHg 94%
11:00 +20°C° 1.3 mm 3 mps 735 mmHg 95%
12:00 +20°C° 1.3 mm 3 mps 735 mmHg 95%
13:00 +20°C° 2.5 mm 4 mps 735 mmHg 95%
14:00 +19°C° 2.5 mm 4 mps 735 mmHg 94%
15:00 +19°C° 2.5 mm 5 mps 735 mmHg 94%
16:00 +17°C° 2.5 mm 7 mps 734 mmHg 94%
17:00 +16°C° 2.5 mm 8 mps 734 mmHg 94%
18:00 +13°C° 2.5 mm 10 mps 734 mmHg 95%
19:00 +13°C° 5.6 mm 10 mps 734 mmHg 95%
20:00 +13°C° 5.6 mm 9 mps 734 mmHg 95%
21:00 +12°C° 5.6 mm 9 mps 734 mmHg 95%
22:00 +12°C° 6.7 mm 10 mps 734 mmHg 95%
23:00 +12°C° 6.7 mm 10 mps 734 mmHg 94%

10 July, Friday

Time Temperature Precipitation Wind Pressure Humidity
00:00 +12°C° 6.7 mm 10 mps 734 mmHg 94%
01:00 +12°C° 1.4 mm 10 mps 735 mmHg 94%
02:00 +12°C° 1.4 mm 10 mps 735 mmHg 93%
03:00 +12°C° 1.4 mm 10 mps 735 mmHg 93%
04:00 +12°C° 1.9 mm 10 mps 735 mmHg 93%
05:00 +12°C° 1.9 mm 9 mps 736 mmHg 93%
06:00 +11°C° 1.9 mm 9 mps 736 mmHg 93%
07:00 +11°C° 2.8 mm 9 mps 736 mmHg 92%
08:00 +11°C° 2.8 mm 9 mps 737 mmHg 91%
09:00 +11°C° 2.8 mm 9 mps 737 mmHg 90%
10:00 +12°C° 3 mm 8 mps 737 mmHg 89%
11:00 +13°C° 3 mm 8 mps 738 mmHg 88%
12:00 +14°C° 3 mm 7 mps 739 mmHg 87%
13:00 +14°C° 1.1 mm 6 mps 739 mmHg 86%
14:00 +15°C° 1.1 mm 6 mps 739 mmHg 85%
15:00 +15°C° 1.1 mm 5 mps 740 mmHg 84%
16:00 +15°C° 0.2 mm 5 mps 741 mmHg 83%
17:00 +16°C° 0.2 mm 5 mps 741 mmHg 82%
18:00 +18°C° 0.2 mm 4 mps 742 mmHg 81%
19:00 +17°C° 0.1 mm 4 mps 742 mmHg 83%
20:00 +16°C° 0.1 mm 3 mps 742 mmHg 84%
21:00 +13°C° 0.1 mm 3 mps 743 mmHg 86%
22:00 +13°C° 0 mm 3 mps 743 mmHg 86%
23:00 +12°C° 0 mm 3 mps 743 mmHg 86%

11 July, Saturday

Time Temperature Precipitation Wind Pressure Humidity
00:00 +12°C° 0 mm 4 mps 744 mmHg 86%
01:00 +11°C° 0 mm 4 mps 744 mmHg 87%
02:00 +11°C° 0 mm 4 mps 744 mmHg 88%
03:00 +10°C° 0 mm 4 mps 744 mmHg 89%
04:00 +11°C° 0 mm 3 mps 745 mmHg 89%
05:00 +11°C° 0 mm 3 mps 745 mmHg 88%
06:00 +11°C° 0 mm 3 mps 745 mmHg 88%
07:00 +13°C° 0 mm 3 mps 745 mmHg 85%
08:00 +16°C° 0 mm 3 mps 745 mmHg 81%
09:00 +17°C° 0 mm 4 mps 745 mmHg 77%
10:00 +18°C° 0 mm 4 mps 745 mmHg 73%
11:00 +19°C° 0 mm 4 mps 745 mmHg 69%
12:00 +20°C° 0 mm 4 mps 745 mmHg 65%
13:00 +21°C° 0 mm 4 mps 745 mmHg 65%
14:00 +21°C° 0 mm 4 mps 745 mmHg 64%
15:00 +21°C° 0 mm 4 mps 745 mmHg 64%
16:00 +21°C° 0 mm 3 mps 745 mmHg 67%
17:00 +21°C° 0 mm 3 mps 745 mmHg 71%
18:00 +21°C° 0 mm 2 mps 745 mmHg 74%
19:00 +19°C° 0 mm 2 mps 745 mmHg 76%
20:00 +18°C° 0 mm 2 mps 745 mmHg 79%
21:00 +16°C° 0 mm 1 mps 745 mmHg 82%
22:00 +16°C° 0 mm 1 mps 745 mmHg 83%
23:00 +15°C° 0 mm 1 mps 745 mmHg 84%
Show more